CST,Max TemperatureF,Mean TemperatureF,Min TemperatureF,Max Dew PointF,MeanDew PointF,Min DewpointF,Max Humidity, Mean Humidity, Min Humidity, Max Sea Level PressureIn, Mean Sea Level PressureIn, Min Sea Level PressureIn, Max VisibilityMiles, Mean VisibilityMiles, Min VisibilityMiles, Max Wind SpeedMPH, Mean Wind SpeedMPH, Max Gust SpeedMPH,PrecipitationIn, CloudCover, Events, WindDirDegrees
2011-12-1,44,35,25,30,25,18,89,66,43,30.40,30.29,30.16,10,7,1,14,8,17,0.03,4,Snow,315
2011-12-2,40,30,19,31,25,16,88,71,54,30.49,30.38,30.27,10,8,5,20,8,23,0.00,2,,156
2011-12-3,52,45,37,47,39,32,89,81,73,30.24,30.12,29.80,10,5,2,30,15,38,0.67,8,Rain,182
2011-12-4,53,42,30,48,32,23,92,82,72,30.32,30.05,29.78,10,8,2,20,12,24,0.10,8,Rain,287
2011-12-5,31,30,28,27,24,21,85,77,69,30.38,30.34,30.31,10,7,4,18,12,22,T,8,,337
2011-12-6,31,29,27,27,24,19,85,74,63,30.35,30.26,30.17,10,5,1,14,7,16,0.03,8,Snow,39
2011-12-7,30,23,15,21,17,11,92,78,63,30.19,30.14,30.06,10,8,4,20,10,22,0.00,4,,261
2011-12-8,34,29,24,25,22,19,81,73,64,30.27,30.23,30.17,10,6,2,17,6,21,0.01,7,Snow,292
2011-12-9,24,16,7,19,11,0,88,70,52,30.53,30.36,30.23,10,7,2,17,9,20,0.03,4,Snow,298
2011-12-10,28,16,4,19,10,-2,83,68,52,30.56,30.48,30.40,10,10,10,17,9,21,0.00,2,,212
2011-12-11,40,33,25,29,24,19,85,75,64,30.40,30.36,30.32,10,7,4,14,10,16,0.00,0,,189
2011-12-12,45,39,33,28,26,24,82,53,23,30.36,30.33,30.31,10,9,7,10,8,14,0.00,7,,180
2011-12-13,44,41,37,37,32,25,92,61,30,30.39,30.30,30.16,10,7,2,13,5,16,0.32,8,Rain,156
2011-12-14,57,49,40,53,44,37,96,91,86,30.16,29.90,29.66,10,5,1,21,13,26,0.64,8,Rain,174
2011-12-15,54,41,27,46,31,21,85,73,61,30.35,29.97,29.69,10,10,7,31,19,43,T,7,,286
2011-12-16,33,26,18,23,20,15,84,72,59,30.45,30.40,30.34,10,10,8,14,5,16,0.00,2,,295
2011-12-17,38,32,25,28,25,22,85,75,64,30.36,30.26,30.20,10,8,5,13,7,15,0.00,5,,245
2011-12-18,49,36,22,34,28,19,88,69,50,30.24,30.07,29.88,10,8,2,20,11,28,0.00,1,,195
2011-12-19,47,40,33,35,32,26,82,74,65,30.23,30.06,29.86,10,10,7,17,10,22,0.00,2,,345
2011-12-20,37,35,33,34,29,26,89,80,70,30.19,29.99,29.77,10,7,1,14,8,16,0.01,7,Rain,71
2011-12-21,39,35,31,34,32,29,92,87,82,29.93,29.78,29.69,10,4,0,12,7,15,T,6,Fog-Rain,247
2011-12-22,34,29,24,30,26,17,92,80,68,30.36,30.16,29.95,10,7,4,17,10,21,0.00,6,,346
2011-12-23,30,22,14,20,16,11,84,74,63,30.41,30.33,30.22,10,10,9,21,9,25,0.00,2,,233
2011-12-24,41,30,19,25,21,15,84,68,51,30.33,30.27,30.19,10,10,6,20,9,23,0.00,0,,222
2011-12-25,45,35,24,27,24,20,81,63,45,30.37,30.26,30.14,10,10,10,22,11,30,0.00,0,,276
2011-12-26,45,33,20,29,23,16,88,67,45,30.34,30.12,29.82,10,10,10,16,11,20,0.00,3,,194
2011-12-27,38,31,24,29,24,19,85,70,54,30.07,29.87,29.70,10,10,10,24,12,31,0.00,2,,288
2011-12-28,40,29,18,28,22,16,88,68,48,30.09,29.99,29.77,10,10,9,15,7,26,0.00,4,,186
2011-12-29,52,43,33,31,29,27,76,60,44,29.75,29.65,29.59,10,10,10,24,11,31,T,3,,232
2011-12-30,41,37,33,38,35,30,92,81,70,29.90,29.60,29.42,8,4,1,21,11,25,0.29,8,Rain,21
2011-12-31,48,40,32,38,33,28,96,81,65,29.96,29.84,29.53,10,5,0,28,14,35,0.00,4,Fog,166